This is the latest recevied weather packets stored in our database for station/object IU1FIL-23. If no packets are shown the sender has not sent any weather packets the latest 10 day(s).
| Time | Temp. | Humidity | Pressure | Rain* | Wind** | Luminosity | Snow |
|---|---|---|---|---|---|---|---|
| 1777929902 | 8.89° C | 10% | - | - | - | - | - |
| 1777929298 | 8.89° C | 10% | - | - | - | - | - |
| 1777928694 | 8.89° C | 98% | 1018.6 hPa | - | - | - | - |
| 1777928089 | 8.89° C | 99% | 1018.6 hPa | - | - | - | - |
| 1777927485 | 8.89° C | 10% | - | - | - | - | - |
| 1777926881 | 8.89° C | 99% | 1018.6 hPa | - | - | - | - |
| 1777926277 | 8.89° C | 94% | 1018.6 hPa | - | - | - | - |
| 1777925673 | 8.89° C | 93% | 1018.7 hPa | - | - | - | - |
| 1777925069 | 8.89° C | 94% | 1018.6 hPa | - | - | - | - |
| 1777924465 | 8.89° C | 89% | 1018.7 hPa | - | - | - | - |
| 1777923861 | 8.89° C | 89% | 1018.6 hPa | - | - | - | - |
| 1777923257 | 8.89° C | 85% | 1018.9 hPa | - | - | - | - |
| 1777922653 | 8.89° C | 86% | 1019.1 hPa | - | - | - | - |
| 1777922048 | 8.89° C | 86% | 1019 hPa | - | - | - | - |
| 1777921444 | 9.44° C | 88% | 1018.9 hPa | - | - | - | - |
| 1777920840 | 9.44° C | 90% | 1018.8 hPa | - | - | - | - |
| 1777920236 | 9.44° C | 89% | 1018.7 hPa | - | - | - | - |
| 1777919632 | 9.44° C | 88% | 1018.5 hPa | - | - | - | - |
| 1777919028 | 10° C | 83% | 1018.6 hPa | - | - | - | - |
| 1777918424 | 10° C | 82% | 1018.6 hPa | - | - | - | - |
| 1777917820 | 10° C | 82% | 1018.7 hPa | - | - | - | - |
| 1777917215 | 10.56° C | 82% | 1018.7 hPa | - | - | - | - |
| 1777916611 | 10.56° C | 82% | 1018.9 hPa | - | - | - | - |
| 1777916040 | 10.56° C | 83% | 1018.8 hPa | - | - | - | - |
| 1777916007 | 10.56° C | 83% | 1018.8 hPa | - | - | - | - |
* Rain since midnight (hover to see other rain measurements)
** Current wind speed in m/s (hover to see current wind gust speed)